Simultaneous Nadir Overpasses (SNOs) Predictions

Prediction of SNOs between METOP-B and TERRA Satellite Orbit:

Table of predicted SNOs for the next 14.0 days since TLE Epoch: 7/19/2025
Index Date (METOP-B) Time (METOP-B) Lat,Lon (METOP-B) SZA (METOP-B ) Date (TERRA) Time (TERRA) Lat,Lon (TERRA) SZA (TERRA ) Distance(km) Time Diff (sec)
1 07/20/2025 19:20:06 77.81,-110.01 57.25 07/20/2025 19:20:24 77.82,-109.97 57.26 0.93 18
2 07/20/2025 20:10:34 -78.35, 60.09 122.20 07/20/2025 20:09:31 -78.36, 60.12 122.20 0.80 63
3 07/23/2025 08:09:14 77.50, 56.26 57.46 07/23/2025 08:10:10 77.50, 56.28 57.46 0.80 56
4 07/23/2025 08:59:42 -78.06,-133.77 122.00 07/23/2025 08:59:17 -78.06,-133.73 122.00 1.03 25
5 07/25/2025 21:48:48 -77.83, 32.83 121.68 07/25/2025 21:49:01 -77.83, 32.83 121.68 0.07 13
6 07/25/2025 22:39:15 78.38,-157.03 58.88 07/25/2025 22:38:08 78.38,-157.05 58.88 0.55 67
7 07/28/2025 10:37:54 -77.60,-160.55 121.33 07/28/2025 10:38:45 -77.59,-160.63 121.34 2.14 51
8 07/28/2025 11:28:20 78.19, 9.70 59.27 07/28/2025 11:27:51 78.18, 9.58 59.26 2.87 29
9 07/31/2025 00:17:28 77.84, 175.62 59.53 07/31/2025 00:17:36 77.84, 175.60 59.53 0.28 8



Historial Predications of SNOs between METOP-B and TERRA
